{"data":{"norad_id":62483,"epoch":"2026-09-19T12:02:57.723936Z","epoch_age_seconds":104536,"freshness":"FRESH","line1":"1 62483U 25001A   26262.50205699  .00000135  00000+0  00000+0 0  9992","line2":"2 62483   0.0229  98.5432 0000188 359.9767 124.9448  1.00274534  5128","mean_motion":1.00274534,"eccentricity":1.88e-5,"inclination_deg":0.0229,"raan_deg":98.5432,"arg_perigee_deg":359.9767,"mean_anomaly_deg":124.9448,"bstar":0,"rev_number":512,"period_min":1436.0575338101,"perigee_km":35785.031651832,"apogee_km":35786.617016778,"semimajor_km":42163.961334305,"source":"CELESTRAK","updated_at":"2026-09-20T09:00:35.341357Z"}}